Skip Page Navigation
NASA JPL Caltech
NASA Logo - Jet Propulsion Laboratory + View the NASA Portal
+ Center for Near-Earth Object Studies
JPL Home Earth Solar System Stars & Galaxies Technology
JPL Solar System Dynamics
BODIES ORBITS EPHEMERIDES TOOLS PHYSICAL DATA DISCOVERY FAQ SITE MAP
IMPORTANT: The SSD Announcement email list is now available. Major changes are coming in the near future, including possible hostname and/or URL changes. To be notified of such changes, subscribe to this email list.

Please visit this page for more details.


JPL Small-Body Database Browser
Search: [ help ]  
145 Adeona
Classification: Main-belt Asteroid          SPK-ID: 2000145
Ephemeris | Orbit Diagram | Orbital Elements | Mission Design | Physical Parameters | Discovery Circumstances ]

[ hide orbit diagram ]

For accurate long-term ephemerides, please instead use our Horizons system.This orbit viewer was implemented using two-body methods, and hence should not be used for determining accurate long-term trajectories (over several years or decades) or planetary encounter circumstances.


[ revert to old Java-based viewer ]

Orbital Elements at Epoch 2458600.5 (2019-Apr-27.0) TDB
Reference: JPL 92 (heliocentric ecliptic J2000)
 Element Value Uncertainty (1-sigma)   Units 
e .14416551367363 4.1934e-08  
a 2.674520602821814 7.9363e-09 au
q 2.2889469662853 1.109e-07 au
i 12.63561903700331 4.6305e-06 deg
node 77.41042720544661 1.801e-05 deg
peri 44.36212880978083 2.2612e-05 deg
M 98.85855233468021 1.3621e-05 deg
tp 2458161.788423790064
(2018-Feb-12.28842379)
5.9985e-05 TDB
period 1597.597412724522
4.37
7.111e-06
1.947e-08
d
yr
n .2253383719406885 1.003e-09 deg/d
Q 3.060094239358327 9.0804e-09 au
  Orbit Determination Parameters
   # obs. used (total)      2031  
   data-arc span      48921 days (133.94 yr)  
   first obs. used      1885-09-10  
   last obs. used      2019-08-20  
   planetary ephem.      DE431  
   SB-pert. ephem.      SB431-N16  
   condition code      0  
   norm. resid. RMS      .47931  
   source      ORB  
   producer      Otto Matic  
   solution date      2019-Sep-23 19:05:33  

Additional Information
 Earth MOID = 1.32302 au 
 Jupiter MOID = 2.12809 au 
 T_jup = 3.330 
[ show covariance matrix ]

Ephemeris | Orbit Diagram | Orbital Elements | Mission Design | Physical Parameters | Discovery Circumstances ]

Physical Parameter Table
Parameter Symbol Value Units Sigma Reference Notes
absolute magnitude H 8.13   n/a IRAS-A-FPA-3-RDR-IMPS-V6.0 IRAS observations used: 10
diameter diameter 127.783 km 0.355 urn:nasa:pds:neowise_diameters_albedos::2.0[mainbelt] (http://adsabs.harvard.edu/abs/2014ApJ...791..121M)  
rotation period rot_per 15.071 h n/a LCDB (Rev. 2019-January); Warner et al., 2009 Published Reference List:
[Stephens, R.D. (2009) Minor Planet Bull. 36, 59-62.]
[Pilcher, F. (2010) Minor Planet Bull. 37, 148-149.]
[Wang, Y.-B.; Xu, Y.; Fan, C.-B.; Liu, C.-Z. (2018). Astron. Nach. 339, 457-464.]
[Warner, B.D. (2018) Minor Planet Bull. 45, 256-259.]
geometric albedo albedo 0.061   0.010 urn:nasa:pds:neowise_diameters_albedos::2.0[mainbelt] (http://adsabs.harvard.edu/abs/2014ApJ...791..121M)  
B-V BV 0.701   0.019 EAR-A-5-DDR-UBV-MEAN-VALUES-V1.2 #obs=4; phase (min.=6.88, mean=14.31, max.=24.13) deg.
U-B UB 0.352   0.018 EAR-A-5-DDR-UBV-MEAN-VALUES-V1.2 #obs=4; phase (min.=6.88, mean=14.31, max.=24.13) deg.
Tholen spectral type spec_T C   n/a EAR-A-5-DDR-TAXONOMY-V4.0 used 7 color indices
SMASSII spectral type spec_B Ch   n/a EAR-A-5-DDR-TAXONOMY-V4.0 based on a high-resolution spectrum by Xu et al. (1995) or Bus and Binzel (2002)

145 Adeona          Discovered 1875-Jun-03 by Peters, C. H. F. at Clinton
Reference: DISCOVERY.DBLast Updated: 2003-08-29
Ephemeris | Orbit Diagram | Orbital Elements | Mission Design | Physical Parameters | Discovery Circumstances ]
ABOUT SSD CREDITS/AWARDS PRIVACY/COPYRIGHT GLOSSARY LINKS
FirstGov 2019-Dec-13 11:16 UT
(server date/time)  
NASA Home Page
Site Manager:   Ryan S. Park
Webmaster  Alan B. Chamberlin